Home > Time Zones > World Clock > Weather > Iran > Yazd > Past weeks

Flag for Iran Weather past 2 weeks in Yazd, Iran

Now
43 °F

Clear.


Feels Like: 39 °F
Forecast: 31 / 61 °F
Wind: 7 mph from West

Location: Yazd Airport

Current Time: Dec 26, 2014 at 11:36:55 PM

Latest Report: Dec 26, 2014 at 10:30 PM


Visibility: 10 mi

Pressure: 30.30 "Hg

Humidity: 36%

Dew point: 18 °F

Location of YazdLocation

Historic Weather in Yazd — Graph

°F

Yazd temperature yesterday

Maximum temperature yesterday: 59 °F (at 1:30 PM)
Minimum temperature yesterday: 34 °F (at 7:00 AM)
Average temperature yesterday: 45 °F

Past Weeks' High & Low Weather Summary

 TemperatureHumidityPressure
High66 °F (Dec 14, 2:30 PM)100% (Dec 17, 3:30 PM)30.42 "Hg (Dec 17, 3:30 PM)
Low34 °F (Dec 25, 7:00 AM)12% (Dec 25, 3:30 PM)29.89 "Hg (Dec 23, 1:30 PM)
Average47 °F50%30.22 "Hg
* Reported Dec 11 9:30 PM — Dec 26 9:30 PM, Yazd, Weather by CustomWeather, © 2014

Note: Actual official high and low records may vary slightly from our data, if they occured in-between our weather recording intervals... More about our weather records

Advertising

Yazd weather history for previous 24 hours

 ConditionsComfort  
Time TempWeatherWind HumidityBarometerVisibility
9:30 PM
Dec 26
45 °FClear.7 mph34%30.30 "Hg10 mi
9:00 PM45 °FClear.5 mph34%30.30 "Hg10 mi
8:30 PM45 °FClear.7 mph34%30.30 "Hg10 mi
8:00 PM46 °FClear.7 mph32%30.30 "Hg10 mi
7:30 PM48 °FClear.5 mph29%30.30 "Hg10 mi
7:00 PM48 °FClear.5 mph29%30.30 "Hg10 mi
6:30 PM50 °FClear.2 mph28%30.30 "Hg10 mi
6:00 PM52 °FClear.2 mph22%30.27 "Hg10 mi
5:30 PM55 °FClear.5 mph18%30.27 "Hg10 mi
5:00 PM57 °FSunny.5 mph17%30.27 "Hg10 mi
4:30 PM61 °FSunny.5 mph15%30.27 "Hg10 mi
3:30 PM63 °FSunny.2 mph13%30.24 "Hg10 mi
2:30 PM63 °FSunny.2 mph14%30.24 "Hg10 mi
1:30 PM59 °FSunny.5 mph16%30.27 "Hg10 mi
12:30 PM57 °FSunny.7 mph17%30.30 "Hg10 mi
12:00 PM55 °FSunny.9 mph19%30.30 "Hg10 mi
11:30 AM54 °FSunny.7 mph21%30.33 "Hg10 mi
11:00 AM52 °FSunny.7 mph22%30.36 "Hg10 mi
10:30 AM50 °FSunny.7 mph25%30.36 "Hg10 mi
10:00 AM48 °FSunny.7 mph27%30.39 "Hg10 mi
9:30 AM45 °FSunny.5 mph31%30.39 "Hg10 mi
9:00 AM43 °FSunny.5 mph34%30.39 "Hg10 mi
8:30 AM41 °FSunny.5 mph33%30.39 "Hg10 mi
8:00 AM37 °FSunny.5 mph41%30.39 "Hg10 mi
7:30 AM34 °FSunny.5 mph48%30.36 "Hg10 mi
7:00 AM34 °FClear.7 mph48%30.36 "Hg10 mi
6:00 AM34 °FClear.2 mph48%30.36 "Hg10 mi
5:30 AM34 °FClear.5 mph44%30.36 "Hg10 mi
4:30 AM36 °FClear.5 mph48%30.33 "Hg10 mi
3:30 AM36 °FClear.5 mph48%30.33 "Hg10 mi
2:30 AM37 °FClear.2 mph45%30.36 "Hg10 mi
1:30 AM37 °FClear.5 mph45%30.36 "Hg10 mi
12:30 AM37 °FClear.2 mph45%30.36 "Hg10 mi
11:30 PM
Dec 25
37 °FClear.2 mph41%30.36 "Hg10 mi
11:00 PM37 °FClear.2 mph41%30.36 "Hg10 mi
Weather by CustomWeather, © 2014

See weather overviewHow to use our weather pages